星链-31500 (STARLINK-31500 )

导读

STARLINK-31500是美国SpaceX公司星链(Starlink)低轨宽带互联网星座的组成卫星,于2024年3月24日发射。星链项目计划在近地轨道部署数千颗卫星,为全球偏远地区、海上山区等传统网络覆盖不足区域提供高速低延迟宽带服务。STARLINK-31500遵循星链标准设计,配备霍尔推进器,具备自主避障能力,寿命末期会主动离轨坠入大气层焚毁,减少太空垃圾隐患,是星链全球覆盖组网的重要一环。

基本信息
目录编号:
59305
目录名称:
STARLINK-31500
国际标识:
2024-056K
轨道中心:
EARTH
卫星名称:
星链-31500
卫星全名:
星链-31500 (STARLINK-31500 )
卫星状态:
在轨 (已飞行894 天)
发射日期:
2024-03-24 UTC
国别 :
美国 (US)
星等 :
--
轨道信息
数据来源 国际轨道数据
星历时间: 2026-09-03T20:58:58+0800
18小时前
查看轨道信息
半长轴: 6861.174km
偏心率: 0.000141
轨道倾角: 43.003°
近地点辐角 282.944°
升交点赤经 306.362°
平近点角 77.126°
近地点: 482.069km
远地点: 484.005km
周期: 94.266分钟
每日圈数: 15.275841
详细信息
固有亮度:
5
最大亮度:
0.3
卫星平台:
Starlink v2.0 mini
覆盖范围:
全球
运营商:
太空探索技术公司
运营商所在国:
美国
制造商(研发单位):
太空探索技术公司
制造商所在国:
美国
使用方式:
暂无
卫星简介
星链(Starlink)计划是由太空探索技术公司(SpaceX)提出的一个巨型低轨卫星互联网星座项目,计划在2019年至2024年间在太空搭建由约1.2万颗卫星组成的“星链”网络,其中1584颗将部署在地球上空550千米处的近地轨道,并从2020年开始工作。该卫星仍在工作。
2D轨道图
3D轨道图
轨道高度分析图
轨道倾角分析图
轨道综合分析图
查看轨道综合分析图
交会数据列表
事件ID 空间交会对象 最接近时刻(TCA) 交会距离 交会风险概率(CRP) 交会风险指数(CRI) 操作
CDM_260905-041805-619305-930521
HAWK-7B (56193)
2026-09-05T
04:18:38+0000
1.023 km
极远距离
2.450267E-5 中风险 0.63
CDM_260906-123303-716805-930521
2026-09-06T
12:33:17+0000
1.327 km
极远距离
9.791177E-6 低风险 0.55
CDM_260904-202705-620005-930521
HAWK-7C (56200)
2026-09-04T
20:27:19+0000
1.561 km
极远距离
5.750807E-6 低风险 0.5